User: anonymous   Login
Location: Fountain Hills
(33.6120°N, 111.7170°W)
Time: 02:47:19
(UTC-07:00)
Language:

Hamsat - Orbit

View from above orbital plane
View from above orbital plane
View from above satellite
View from above satellite

Ground track
Ground track

The orbit data is extracted from the following two-line orbital elements,

1 28650U 05017B   17018.93005489 +.00000289 +00000-0 +36745-4 0  9997
2 28650 097.6333 358.5026 0022079 264.6719 095.1979 14.88540025633894
Epoch (UTC): 18 January 2017 22:19:16
Eccentricity: 0.0022079
inclination: 97.6333°
perigee height: 587 km
apogee height: 618 km
right ascension of ascending node: 358.5026°
argument of perigee: 264.6719°
revolutions per day: 14.88540025
mean anomaly at epoch: 95.1979°
orbit number at epoch: 63389

The dashed part of the orbit path shows where the satellite is in the earth's shadow,  

DLR